Time,TemperatureF,DewpointF,PressureIn,WindDirection,WindDirectionDegrees,WindSpeedMPH,WindSpeedGustMPH,Humidity,HourlyPrecipIn,Conditions,Clouds,dailyrainin,SoftwareType,DateUTC
2013-03-11 00:02:00,35.0,35.0,30.37,SSE,154,0.0,15.0,99,0.00,,,0.00,,2013-03-11 04:02:00,
2013-03-11 00:12:00,35.0,35.0,30.37,SSE,154,0.0,15.0,99,0.00,,,0.00,,2013-03-11 04:12:00,
2013-03-11 00:22:00,35.0,35.0,30.36,SSE,148,0.0,0.0,99,0.00,,,0.00,,2013-03-11 04:22:00,
2013-03-11 00:32:00,35.0,35.0,30.36,SSE,148,0.0,0.0,99,0.00,,,0.00,,2013-03-11 04:32:00,
2013-03-11 00:43:00,35.0,35.0,30.36,SSE,148,0.0,0.0,99,0.00,,,0.00,,2013-03-11 04:43:00,
2013-03-11 00:53:00,36.0,36.0,30.37,SSE,148,0.0,0.0,99,0.00,,,0.00,,2013-03-11 04:53:00,
2013-03-11 01:03:00,36.0,36.0,30.37,SSE,148,0.0,0.0,99,0.00,,,0.00,,2013-03-11 05:03:00,
2013-03-11 01:12:00,36.0,36.0,30.37,SSE,148,0.0,0.0,99,0.00,,,0.00,,2013-03-11 05:12:00,
2013-03-11 01:22:00,37.0,37.0,30.37,SSE,167,0.0,15.0,99,0.00,,,0.00,,2013-03-11 05:22:00,
2013-03-11 01:30:00,37.0,37.0,30.37,SSW,197,4.0,15.0,99,0.00,,,0.00,,2013-03-11 05:30:00,
2013-03-11 01:32:00,37.0,37.0,30.37,SSE,167,0.0,15.0,99,0.00,,,0.00,,2013-03-11 05:32:00,
2013-03-11 01:43:00,37.0,37.0,30.37,SSE,167,0.0,15.0,99,0.00,,,0.00,,2013-03-11 05:43:00,
2013-03-11 01:52:00,37.0,37.0,30.37,SSW,197,4.0,15.0,99,0.00,,,0.00,,2013-03-11 05:52:00,
2013-03-11 02:02:00,37.0,37.0,30.37,SSW,197,4.0,15.0,99,0.00,,,0.00,,2013-03-11 06:02:00,
2013-03-11 02:12:00,37.0,37.0,30.37,SSW,197,4.0,15.0,99,0.00,,,0.00,,2013-03-11 06:12:00,
2013-03-11 02:22:00,37.0,37.0,30.37,SSW,197,4.0,15.0,99,0.00,,,0.00,,2013-03-11 06:22:00,
2013-03-11 02:30:00,37.0,37.0,30.37,SW,219,0.0,15.0,99,0.00,,,0.00,,2013-03-11 06:30:00,
2013-03-11 02:53:00,37.0,37.0,30.37,SW,219,0.0,15.0,99,0.00,,,0.00,,2013-03-11 06:53:00,
2013-03-11 03:03:00,37.0,37.0,30.37,SW,219,0.0,15.0,99,0.00,,,0.00,,2013-03-11 07:03:00,
2013-03-11 03:12:00,37.0,37.0,30.37,SW,219,0.0,15.0,99,0.00,,,0.00,,2013-03-11 07:12:00,
2013-03-11 03:22:00,37.0,37.0,30.37,SW,219,0.0,15.0,99,0.00,,,0.00,,2013-03-11 07:22:00,
2013-03-11 03:52:00,37.0,37.0,30.32,SSE,158,1.0,15.0,99,0.00,,,0.00,,2013-03-11 07:52:00,
2013-03-11 04:02:00,37.0,37.0,30.32,SSE,158,1.0,15.0,99,0.00,,,0.00,,2013-03-11 08:02:00,
2013-03-11 04:12:00,37.0,37.0,30.32,SSE,158,1.0,15.0,99,0.00,,,0.00,,2013-03-11 08:12:00,
2013-03-11 04:22:00,37.0,37.0,30.32,SSE,165,0.0,15.0,99,0.00,,,0.00,,2013-03-11 08:22:00,
2013-03-11 04:32:00,37.0,37.0,30.32,SSE,165,0.0,15.0,99,0.00,,,0.00,,2013-03-11 08:32:00,
2013-03-11 04:42:00,37.0,37.0,30.32,SSE,165,0.0,15.0,99,0.00,,,0.00,,2013-03-11 08:42:00,
2013-03-11 04:52:00,37.0,37.0,30.33,SSE,165,0.0,15.0,99,0.00,,,0.00,,2013-03-11 08:52:00,
2013-03-11 05:02:00,37.0,37.0,30.33,SSE,165,0.0,15.0,99,0.00,,,0.00,,2013-03-11 09:02:00,
2013-03-11 05:12:00,37.0,37.0,30.33,SSE,165,0.0,15.0,99,0.00,,,0.00,,2013-03-11 09:12:00,
2013-03-11 05:23:00,37.0,37.0,30.33,SSE,165,0.0,15.0,99,0.00,,,0.00,,2013-03-11 09:23:00,
2013-03-11 05:30:00,37.0,37.0,30.32,SSE,165,0.0,15.0,99,0.00,,,0.00,,2013-03-11 09:30:00,
2013-03-11 05:32:00,37.0,37.0,30.33,SSE,165,0.0,15.0,99,0.00,,,0.00,,2013-03-11 09:32:00,
2013-03-11 05:42:00,37.0,37.0,30.33,SSE,165,0.0,15.0,99,0.00,,,0.00,,2013-03-11 09:42:00,
2013-03-11 05:52:00,37.0,37.0,30.32,SSE,165,0.0,15.0,99,0.00,,,0.00,,2013-03-11 09:52:00,
2013-03-11 06:02:00,37.0,37.0,30.32,SSE,165,0.0,15.0,99,0.00,,,0.00,,2013-03-11 10:02:00,
2013-03-11 06:12:00,37.0,37.0,30.32,SSE,165,0.0,15.0,99,0.00,,,0.00,,2013-03-11 10:12:00,
2013-03-11 06:22:00,37.0,37.0,30.32,SSE,165,0.0,15.0,99,0.00,,,0.00,,2013-03-11 10:22:00,
2013-03-11 07:53:00,37.0,37.0,30.32,South,191,0.0,15.0,99,0.00,,,0.00,,2013-03-11 11:53:00,
2013-03-11 08:02:00,37.0,37.0,30.32,South,191,0.0,15.0,99,0.00,,,0.00,,2013-03-11 12:02:00,
2013-03-11 08:12:00,37.0,37.0,30.32,South,191,0.0,15.0,99,0.00,,,0.00,,2013-03-11 12:12:00,
2013-03-11 08:22:00,37.0,37.0,30.32,South,191,0.0,15.0,99,0.00,,,0.00,,2013-03-11 12:22:00,
2013-03-11 08:32:00,37.0,37.0,30.32,South,191,0.0,15.0,99,0.00,,,0.00,,2013-03-11 12:32:00,
2013-03-11 08:43:00,37.0,37.0,30.32,South,191,0.0,15.0,99,0.00,,,0.00,,2013-03-11 12:43:00,
2013-03-11 08:53:00,38.0,38.0,30.32,South,169,1.0,15.0,99,0.00,,,0.00,,2013-03-11 12:53:00,
2013-03-11 09:02:00,38.0,38.0,30.32,South,169,1.0,15.0,99,0.00,,,0.00,,2013-03-11 13:02:00,
2013-03-11 09:12:00,38.0,38.0,30.32,South,169,1.0,15.0,99,0.00,,,0.00,,2013-03-11 13:12:00,
2013-03-11 09:22:00,39.0,39.0,30.32,SE,128,1.0,15.0,99,0.00,,,0.00,,2013-03-11 13:22:00,
2013-03-11 09:30:00,40.0,40.0,30.31,SE,134,0.0,15.0,99,0.00,,,0.00,,2013-03-11 13:30:00,
2013-03-11 09:32:00,39.0,39.0,30.32,SE,128,1.0,15.0,99,0.00,,,0.00,,2013-03-11 13:32:00,
2013-03-11 09:43:00,39.0,39.0,30.32,SE,128,1.0,15.0,99,0.00,,,0.00,,2013-03-11 13:43:00,
2013-03-11 09:53:00,40.0,40.0,30.31,SE,134,0.0,15.0,99,0.00,,,0.00,,2013-03-11 13:53:00,
2013-03-11 10:02:00,40.0,40.0,30.31,SE,134,0.0,15.0,99,0.00,,,0.00,,2013-03-11 14:02:00,
2013-03-11 10:12:00,40.0,40.0,30.31,SE,134,0.0,15.0,99,0.00,,,0.00,,2013-03-11 14:12:00,
2013-03-11 10:22:00,40.0,40.0,30.31,SE,134,0.0,15.0,99,0.00,,,0.00,,2013-03-11 14:22:00,
2013-03-11 10:53:00,42.0,42.0,30.33,SE,128,3.0,15.0,99,0.00,,,0.00,,2013-03-11 14:53:00,
2013-03-11 11:03:00,42.0,42.0,30.33,SE,128,3.0,15.0,99,0.00,,,0.00,,2013-03-11 15:03:00,
2013-03-11 11:13:00,42.0,42.0,30.33,SE,128,3.0,15.0,99,0.00,,,0.00,,2013-03-11 15:13:00,
2013-03-11 11:22:00,42.0,42.0,30.33,SSE,165,5.0,15.0,99,0.00,,,0.00,,2013-03-11 15:22:00,
2013-03-11 11:30:00,43.0,43.0,30.33,SE,134,4.0,15.0,99,0.00,,,0.00,,2013-03-11 15:30:00,
2013-03-11 11:32:00,42.0,42.0,30.33,SSE,165,5.0,15.0,99,0.00,,,0.00,,2013-03-11 15:32:00,
2013-03-11 11:43:00,42.0,42.0,30.33,SSE,165,5.0,15.0,99,0.00,,,0.00,,2013-03-11 15:43:00,
2013-03-11 11:53:00,43.0,43.0,30.33,SE,134,4.0,15.0,99,0.00,,,0.00,,2013-03-11 15:53:00,
2013-03-11 12:02:00,43.0,43.0,30.33,SE,134,4.0,15.0,99,0.00,,,0.00,,2013-03-11 16:02:00,
2013-03-11 12:13:00,43.0,43.0,30.33,SE,134,4.0,15.0,99,0.00,,,0.00,,2013-03-11 16:13:00,
2013-03-11 12:22:00,43.0,43.0,30.33,SE,134,4.0,15.0,99,0.00,,,0.00,,2013-03-11 16:22:00,
2013-03-11 12:30:00,44.0,44.0,30.32,South,182,4.0,15.0,99,0.00,,,0.00,,2013-03-11 16:30:00,
2013-03-11 12:53:00,44.0,44.0,30.32,South,182,4.0,15.0,99,0.00,,,0.00,,2013-03-11 16:53:00,
2013-03-11 13:03:00,44.0,44.0,30.32,South,182,4.0,15.0,99,0.00,,,0.00,,2013-03-11 17:03:00,
2013-03-11 13:17:00,44.0,44.0,30.32,South,182,4.0,15.0,99,0.00,,,0.00,,2013-03-11 17:17:00,
2013-03-11 13:26:00,44.0,44.0,30.32,South,182,4.0,15.0,99,0.00,,,0.00,,2013-03-11 17:26:00,
2013-03-11 13:30:00,47.0,47.0,30.29,SE,143,5.0,15.0,99,0.00,,,0.00,,2013-03-11 17:30:00,
2013-03-11 13:53:00,47.0,47.0,30.29,SE,143,5.0,15.0,99,0.00,,,0.00,,2013-03-11 17:53:00,
2013-03-11 14:02:00,47.0,47.0,30.29,SE,143,5.0,15.0,99,0.00,,,0.00,,2013-03-11 18:02:00,
2013-03-11 14:12:00,47.0,47.0,30.29,SE,143,5.0,15.0,99,0.00,,,0.00,,2013-03-11 18:12:00,
2013-03-11 14:23:00,47.0,47.0,30.29,SE,143,5.0,15.0,99,0.00,,,0.00,,2013-03-11 18:23:00,
2013-03-11 15:53:00,47.0,47.0,30.27,South,176,7.0,15.0,99,0.00,,,0.00,,2013-03-11 19:53:00,
2013-03-11 16:02:00,47.0,47.0,30.27,South,176,7.0,15.0,99,0.00,,,0.00,,2013-03-11 20:02:00,
2013-03-11 16:12:00,47.0,47.0,30.27,South,176,7.0,15.0,99,0.00,,,0.00,,2013-03-11 20:12:00,
2013-03-11 16:22:00,47.0,47.0,30.27,SSE,167,0.0,15.0,99,0.00,,,0.00,,2013-03-11 20:22:00,
2013-03-11 16:30:00,46.0,46.0,30.26,SSE,156,6.0,15.0,99,0.00,,,0.00,,2013-03-11 20:30:00,
2013-03-11 16:32:00,47.0,47.0,30.27,SSE,167,0.0,15.0,99,0.00,,,0.00,,2013-03-11 20:32:00,
2013-03-11 16:44:00,47.0,47.0,30.27,SSE,167,0.0,15.0,99,0.00,,,0.00,,2013-03-11 20:44:00,
2013-03-11 16:53:00,46.0,46.0,30.26,SSE,156,6.0,15.0,99,0.00,,,0.00,,2013-03-11 20:53:00,
2013-03-11 17:03:00,46.0,46.0,30.26,SSE,156,6.0,15.0,99,0.00,,,0.00,,2013-03-11 21:03:00,
2013-03-11 17:13:00,46.0,46.0,30.26,SSE,156,6.0,15.0,99,0.00,,,0.00,,2013-03-11 21:13:00,
2013-03-11 17:22:00,46.0,46.0,30.26,SSE,156,6.0,15.0,99,0.00,,,0.00,,2013-03-11 21:22:00,
2013-03-11 17:30:00,46.0,46.0,30.26,South,179,5.0,15.0,99,0.00,,,0.00,,2013-03-11 21:30:00,
2013-03-11 17:54:00,46.0,46.0,30.26,South,179,5.0,15.0,99,0.00,,,0.00,,2013-03-11 21:54:00,
2013-03-11 18:03:00,46.0,46.0,30.26,South,179,5.0,15.0,99,0.00,,,0.00,,2013-03-11 22:03:00,
2013-03-11 18:13:00,46.0,46.0,30.26,South,179,5.0,15.0,99,0.00,,,0.00,,2013-03-11 22:13:00,
2013-03-11 18:22:00,46.0,46.0,30.26,South,179,5.0,15.0,99,0.00,,,0.00,,2013-03-11 22:22:00,
2013-03-11 18:30:00,45.0,45.0,30.25,SSE,147,5.0,15.0,99,0.00,,,0.00,,2013-03-11 22:30:00,
2013-03-11 18:53:00,45.0,45.0,30.25,SSE,147,5.0,15.0,99,0.00,,,0.00,,2013-03-11 22:53:00,
2013-03-11 19:03:00,45.0,45.0,30.25,SSE,147,5.0,15.0,99,0.00,,,0.00,,2013-03-11 23:03:00,
2013-03-11 19:12:00,45.0,45.0,30.25,SSE,147,5.0,15.0,99,0.00,,,0.00,,2013-03-11 23:12:00,
2013-03-11 19:22:00,45.0,45.0,30.25,SSE,147,5.0,15.0,99,0.00,,,0.00,,2013-03-11 23:22:00,
2013-03-11 19:30:00,44.0,44.0,30.24,SE,133,0.0,15.0,99,0.00,,,0.00,,2013-03-11 23:30:00,
2013-03-11 19:43:00,44.0,44.0,30.24,SE,133,0.0,15.0,99,0.00,,,0.00,,2013-03-11 23:43:00,
2013-03-11 19:54:00,44.0,44.0,30.24,SE,133,0.0,15.0,99,0.00,,,0.00,,2013-03-11 23:54:00,
2013-03-11 20:02:00,44.0,44.0,30.24,SE,133,0.0,15.0,99,0.00,,,0.00,,2013-03-12 00:02:00,
2013-03-11 20:13:00,44.0,44.0,30.24,SE,133,0.0,15.0,99,0.00,,,0.00,,2013-03-12 00:13:00,
2013-03-11 20:23:00,44.0,44.0,30.24,SE,133,0.0,15.0,99,0.00,,,0.00,,2013-03-12 00:23:00,
2013-03-11 20:30:00,44.0,44.0,30.23,ESE,109,0.0,15.0,99,0.00,,,0.00,,2013-03-12 00:30:00,
2013-03-11 20:54:00,44.0,44.0,30.23,ESE,109,0.0,15.0,99,0.00,,,0.00,,2013-03-12 00:54:00,
2013-03-11 21:02:00,44.0,44.0,30.23,ESE,109,0.0,15.0,99,0.00,,,0.00,,2013-03-12 01:02:00,
2013-03-11 21:12:00,44.0,44.0,30.23,ESE,109,0.0,15.0,99,0.00,,,0.00,,2013-03-12 01:12:00,
2013-03-11 21:22:00,44.0,44.0,30.23,ESE,109,0.0,15.0,99,0.00,,,0.00,,2013-03-12 01:22:00,
2013-03-11 22:00:00,44.0,44.0,30.22,SE,128,0.0,15.0,99,0.00,,,0.00,,2013-03-12 02:00:00,
2013-03-11 22:22:00,44.0,44.0,30.22,SE,128,0.0,15.0,99,0.00,,,0.00,,2013-03-12 02:22:00,
2013-03-11 22:32:00,44.0,44.0,30.22,SE,128,0.0,15.0,99,0.00,,,0.00,,2013-03-12 02:32:00,
2013-03-11 22:43:00,44.0,44.0,30.22,SE,128,0.0,15.0,99,0.00,,,0.00,,2013-03-12 02:43:00,
2013-03-11 22:52:00,44.0,44.0,30.22,SE,128,0.0,15.0,99,0.00,,,0.00,,2013-03-12 02:52:00,
2013-03-11 23:22:00,46.0,46.0,30.21,SSW,193,6.0,15.0,99,0.00,,,0.00,,2013-03-12 03:22:00,
2013-03-11 23:32:00,46.0,46.0,30.21,SSW,193,6.0,15.0,99,0.00,,,0.00,,2013-03-12 03:32:00,
2013-03-11 23:43:00,46.0,46.0,30.21,SSW,193,6.0,15.0,99,0.00,,,0.00,,2013-03-12 03:43:00,
2013-03-11 23:53:00,45.0,45.0,30.22,SSW,192,6.0,15.0,99,0.00,,,0.00,,2013-03-12 03:53:00,